Franklin, PA

6:45 PM EST on December 15, 2019 (GMT -0500)
Venango Regional

Weather History for KFKL - October, 2019

Change the Weather History Date:

Wednesday, October 16, 2019

  Actual Average Record
Temperature  
Mean Temperature 48 °F -  
Max Temperature 55 °F 64 °F 84 °F (1930)
Min Temperature 42 °F 39 °F 25 °F (1944)
Degree Days  
Heating Degree Days 16    
Moisture  
Dew Point 44 °F    
Average Humidity 86    
Maximum Humidity 100    
Minimum Humidity 62    
Precipitation  
Precipitation 0.88 in - - ()
Sea Level Pressure  
Sea Level Pressure 29.65 in    
Wind  
Wind Speed 10 mph (SW)    
Max Wind Speed 16 mph    
Max Gust Speed 28 mph    
Visibility 9 miles    
Events Rain , Thunderstorm    
Averages and records for this station are not official NWS values.
T = Trace of Precipitation, MM = Missing Value Source: NWS Daily Summary

Daily Weather History Graph

Daily Weather History Graph

Search for Another Location

Airport or City:

Astronomy

Oct. 16, 2019 Rise Set
Actual Time 7:32 AM EDT 6:37 PM EDT
Civil Twilight 7:04 AM EDT 7:05 PM EDT
Nautical Twilight 6:32 AM EDT 7:37 PM EDT
Astronomical Twilight 6:00 AM EDT 8:09 PM EDT
Moon 8:28 PM EDT (10/16) 10:02 AM EDT (10/16)
Length of Visible Light 12h 00m
Length of Day
11h 05m
Waning Gibbous, 93% of the Moon is Illuminated
Oct 16
Waning Gibbous
Oct 21
Last Quarter
Oct 27
New
Nov 4
First Quarter
Nov 12
Full

Hourly Weather History & Observations

Time (EDT) Temp. Windchill Dew Point Humidity Pressure Visibility Wind Dir Wind Speed Gust Speed Precip Events Conditions
12:56 AM 55.0 °F - 42.1 °F 62% 29.82 in 10.0 mi SSE 11.5 mph - N/A   Overcast
1:56 AM 54.0 °F - 42.1 °F 64% 29.80 in 10.0 mi SSE 11.5 mph - N/A   Mostly Cloudy
2:56 AM 54.0 °F - 42.1 °F 64% 29.76 in 10.0 mi SSE 8.1 mph - N/A   Partly Cloudy
3:56 AM 54.0 °F - 42.1 °F 64% 29.74 in 10.0 mi SSE 9.2 mph - N/A   Scattered Clouds
4:56 AM 54.0 °F - 42.1 °F 64% 29.70 in 10.0 mi South 10.4 mph - N/A   Clear
6:18 AM 55.4 °F - 42.8 °F 63% 29.66 in 10.0 mi SSE 12.7 mph - N/A   Overcast
6:56 AM 53.1 °F - 46.0 °F 77% 29.65 in 10.0 mi South 6.9 mph - 0.01 in Rain , Thunderstorm Rain
7:01 AM 51.8 °F - 46.4 °F 82% 29.65 in 10.0 mi South 6.9 mph - 0.01 in Rain Light Rain
7:13 AM 51.8 °F - 46.4 °F 82% 29.65 in 10.0 mi South 9.2 mph - 0.01 in Thunderstorm Overcast
7:33 AM 53.6 °F - 48.2 °F 82% 29.65 in 10.0 mi South 12.7 mph - 0.03 in Rain , Thunderstorm Rain
7:40 AM 51.8 °F - 48.2 °F 88% 29.65 in 10.0 mi South 11.5 mph - 0.03 in Rain Light Rain
7:56 AM 52.0 °F - 48.0 °F 86% 29.65 in 9.0 mi South 13.8 mph - 0.05 in Rain Rain
8:25 AM 51.8 °F - 50.0 °F 94% 29.63 in 9.0 mi South 13.8 mph - 0.08 in Rain Rain
8:35 AM 51.8 °F - 50.0 °F 94% 29.63 in 8.0 mi South 13.8 mph 20.7 mph 0.10 in Rain Rain
8:56 AM 52.0 °F - 50.0 °F 93% 29.63 in 8.0 mi South 11.5 mph - 0.14 in Rain Rain
9:22 AM 51.8 °F - 50.0 °F 94% 29.64 in 5.0 mi WNW 9.2 mph - 0.15 in Rain Heavy Rain
9:41 AM 48.2 °F - 46.4 °F 93% 29.65 in 9.0 mi WNW 10.4 mph - 0.23 in Rain Rain
9:56 AM 46.9 °F - 46.0 °F 97% 29.67 in 10.0 mi NW 10.4 mph 19.6 mph 0.27 in Rain Rain
10:34 AM 46.4 °F 43.5 °F 44.6 °F 93% 29.69 in 10.0 mi WNW 5.8 mph - 0.12 in Rain Rain
10:48 AM 46.4 °F 45.2 °F 44.6 °F 93% 29.68 in 8.0 mi WNW 3.5 mph - 0.17 in Rain Rain
10:56 AM 46.0 °F 44.8 °F 45.0 °F 96% 29.69 in 9.0 mi NW 3.5 mph - 0.19 in Rain Rain
11:39 AM 46.4 °F - 44.6 °F 93% 29.66 in 9.0 mi Calm Calm - 0.09 in Rain Rain
11:56 AM 46.0 °F 44.8 °F 45.0 °F 96% 29.66 in 3.0 mi SSE 3.5 mph - 0.13 in Rain Rain
12:37 PM 46.4 °F 45.2 °F 44.6 °F 93% 29.63 in 8.0 mi SSE 3.5 mph - 0.06 in Rain Light Rain
12:56 PM 46.9 °F - 46.0 °F 97% 29.65 in 10.0 mi SSW 6.9 mph - 0.06 in Rain Light Rain
1:10 PM 46.4 °F 43.5 °F 46.4 °F 100% 29.63 in 10.0 mi SSW 5.8 mph - 0.00 in Rain Light Rain
1:25 PM 46.4 °F 43.5 °F 44.6 °F 93% 29.62 in 10.0 mi SSW 5.8 mph - 0.00 in Rain Light Rain
1:32 PM 46.4 °F 40.4 °F 44.6 °F 93% 29.62 in 10.0 mi SW 13.8 mph 18.4 mph 0.01 in Rain Light Rain
1:49 PM 46.4 °F 41.9 °F 44.6 °F 93% 29.64 in 10.0 mi WSW 9.2 mph - 0.01 in   Overcast
1:56 PM 46.0 °F 41.4 °F 44.1 °F 93% 29.64 in 10.0 mi WSW 9.2 mph - 0.01 in   Overcast
2:11 PM 46.4 °F 41.9 °F 44.6 °F 93% 29.62 in 10.0 mi WSW 9.2 mph - N/A   Overcast
2:56 PM 45.0 °F 37.9 °F 41.0 °F 86% 29.63 in 10.0 mi WSW 16.1 mph 25.3 mph N/A   Overcast
3:20 PM 46.4 °F 41.5 °F 39.2 °F 76% 29.62 in 10.0 mi WSW 10.4 mph - N/A   Overcast
3:38 PM 46.4 °F 40.1 °F 39.2 °F 76% 29.62 in 10.0 mi West 15.0 mph 21.9 mph N/A   Overcast
3:56 PM 46.0 °F 40.2 °F 39.0 °F 76% 29.63 in 10.0 mi WSW 12.7 mph 21.9 mph N/A   Overcast
4:10 PM 44.6 °F 37.8 °F 39.2 °F 81% 29.62 in 10.0 mi WSW 15.0 mph 19.6 mph N/A   Overcast
4:56 PM 46.0 °F 40.2 °F 39.0 °F 76% 29.63 in 10.0 mi WSW 12.7 mph 18.4 mph N/A   Overcast
5:56 PM 44.1 °F 38.6 °F 39.9 °F 85% 29.64 in 10.0 mi WSW 10.4 mph - N/A   Overcast
6:44 PM 42.8 °F 36.6 °F 41.0 °F 93% 29.61 in 9.0 mi WSW 11.5 mph 18.4 mph 0.00 in Rain Light Rain
6:56 PM 43.0 °F 36.8 °F 41.0 °F 93% 29.63 in 8.0 mi SW 11.5 mph - 0.00 in Rain Light Rain
7:56 PM 44.1 °F 38.1 °F 42.1 °F 93% 29.63 in 10.0 mi WSW 11.5 mph 18.4 mph 0.00 in   Overcast
8:56 PM 44.1 °F 37.7 °F 43.0 °F 96% 29.62 in 10.0 mi WSW 12.7 mph 20.7 mph 0.01 in Rain Light Rain
9:56 PM 44.1 °F 36.8 °F 42.1 °F 93% 29.63 in 10.0 mi West 16.1 mph 27.6 mph 0.00 in   Overcast
10:56 PM 43.0 °F 35.4 °F 39.9 °F 89% 29.64 in 10.0 mi West 16.1 mph 21.9 mph N/A Rain Light Rain
11:56 PM 42.1 °F 37.7 °F 39.9 °F 92% 29.64 in 6.0 mi WNW 6.9 mph 17.3 mph 0.01 in Rain Rain